Regional Weather Roundup
Issued by NWS

Home | Current Version | Previous Version | Text Only | Print | Product List | Glossary On
Versions: 1 2 3 4 5 6 7 8 9 10 11 12 13 14 15 16 17 18 19 20 21 22 23 24 25 26 27
000
ASUS43 KDMX 221607
RWRIA

WEATHER ROUNDUP FOR IOWA
NATIONAL WEATHER SERVICE DES MOINES IA
1100 AM CDT TUE APR 22 2014

NOTE: "FAIR" INDICATES FEW OR NO CLOUDS BELOW 12,000 FEET WITH NO
SIGNIFICANT WEATHER AND/OR OBSTRUCTIONS TO VISIBILITY.

* - THESE STATIONS ARE NOT NWS STATIONS...THUS NOT UNDER NWS
QUALITY CONTROL.  THEY ALSO DO NOT REPORT WEATHER SUCH
AS PRECIPITATION OR FOG.

IAZ001>003-012>014-020>022-031>034-043>046-221700-
   NORTHWEST IOWA

CITY           SKY/WX    TMP DP  RH WIND       PRES   REMARKS
CARROLL *      SUNNY     55  32  41 NE13G18   30.16R
CHEROKEE *     SUNNY     57  34  41 N5        30.16S
DENISON *      SUNNY     55  34  44 NE10      30.15F
LE MARS *      SUNNY     57  32  38 VRB6      30.16S
ORANGE CITY *  SUNNY     57  30  35 E6        30.15F
SHELDON *      SUNNY     55  30  38 SE7       30.15S
SIOUX CITY     SUNNY     58  32  37 MISG      30.16R
SPENCER        SUNNY     56  33  42 N9        30.16S
STORM LAKE *   SUNNY     54  32  43 NE8       30.17S
$$

IAZ055>058-069>071-079>083-090>094-221700-
   SOUTHWEST IOWA

CITY           SKY/WX    TMP DP  RH WIND       PRES   REMARKS
ATLANTIC *     SUNNY     55  32  41 NE13G18   30.15F
AUDUBON *      SUNNY     57  28  33 N9        30.16F
CLARINDA *     SUNNY     59  32  36 E12       30.17F
COUNCIL BLFS * SUNNY     57  34  41 E7G15     30.16S
CRESTON *      SUNNY     55  32  41 N15G22    30.14F
HARLAN  *      SUNNY     55  34  44 NE9       30.20S
LAMONI         SUNNY     56  33  42 NE15      30.14S
RED OAK *      SUNNY     57  36  44 E12       30.17S
SHENANDOAH *   SUNNY     57  32  38 NE10      30.18R
$$

IAZ047>049-059>061-072>074-084-221700-
   CENTRAL IOWA

CITY           SKY/WX    TMP DP  RH WIND       PRES   REMARKS
AMES           SUNNY     55  32  41 N14G21    30.14S
ANKENY *       SUNNY     57  32  38 N17       30.14S
CHARITON *     SUNNY     54  36  50 N13       30.14F
DES MOINES     MOSUNNY   57  30  35 N15       30.15S
GRINNELL*      SUNNY     55  32  41 NW14G22   30.13S
KNOXVILLE *    SUNNY     54  32  43 N9G16     30.13S
MARSHALLTOWN   SUNNY     54  32  43 N18       30.12F
NEWTON *       SUNNY     54  30  40 NE13G20   30.13F
PELLA *        SUNNY     55  34  44 N10       30.14F
PERRY *          N/A     57  28  33 NE8       30.15F
$$

IAZ004>006-015-016-023>025-035-036-221700-
   NORTH CENTRAL IOWA

CITY           SKY/WX    TMP DP  RH WIND       PRES   REMARKS
ALGONA *       SUNNY     54  34  47 N12G20    30.16R
CLARION *      SUNNY     54  36  50 N18       30.14S
ESTHERVILLE    SUNNY     54  35  48 N13       30.15R
FORT DODGE *   SUNNY     54  36  50 NE15      30.16S
MASON CITY     SUNNY     53  34  48 N17       30.14S
FOREST CITY *  SUNNY     54  32  43 N16       30.13S
IOWA FALLS *     N/A     54  34  47 N13G20    30.14S
$$

IAZ007>011-017>019-026>030-037>042-050>054-066-221700-
   NORTHEAST IOWA

CITY           SKY/WX    TMP DP  RH WIND       PRES   REMARKS
CEDAR RAPIDS   SUNNY     51  32  48 N21       30.08F
CHARLES CITY * SUNNY     48  36  61 N15       30.12S
CLINTON *      SUNNY     54  30  40 NW15G24   30.07F
DECORAH *      SUNNY     48  30  49 NW16G26   30.08R
DUBUQUE        SUNNY     51  30  44 N15G23    30.05S
MONTICELLO *   SUNNY     52  30  43 NW16      30.07S
OELWEIN *      SUNNY    N/A N/A N/A N15G23    30.11S
WATERLOO       SUNNY     52  31  44 N14G24    30.11S
$$

IAZ064-065-067-068-078-221700-
   EAST CENTRAL IOWA

CITY           SKY/WX    TMP DP  RH WIND       PRES   REMARKS
DAVENPORT      SUNNY     52  34  50 N17       30.06S
IOWA CITY      SUNNY     52  33  48 N15G23    30.10F
MT. PLEASANT * SUNNY     55  30  38 N15G22    30.10S
MUSCATINE *    SUNNY     54  32  43 NW14G21   30.09S
QUAD CITIES    SUNNY     54  34  46 NW15      30.06S
$$

IAZ062-063-075>077-085>089-095>099-221700-
   SOUTHEAST IOWA

CITY           SKY/WX    TMP DP  RH WIND       PRES   REMARKS
BURLINGTON     SUNNY     55  32  41 N14G22    30.07F
FAIRFIELD *    SUNNY     54  34  47 N18       30.11S
FORT MADISON * SUNNY     55  34  44 N18       30.09S
KEOKUK *       SUNNY     55  32  41 N13G20    30.08S
OSKALOOSA *      N/A     54  34  47 N15       30.13R
CENTERVILLE *  SUNNY     54  34  47 N14       30.14F
OTTUMWA        SUNNY     54  33  45 N15       30.13R
WASHINGTON *   SUNNY     54  34  47 N14G20    30.10S
$$

ABBREVIATIONS USED IN REMARKS
   TC - TEMPERATURES IN CELSIUS
  WCI - WIND CHILL INDEX
   HX - HEAT INDEX
  VSB - VISIBILITY
$$




USA.gov is the U.S. government's official web portal to all federal, state and local government web resources and services.